This demonstration page uses our WeatherBlox Daily Observations layout. Learn more.

Left ArrowRight Arrow

41.55636, -103.73856

Hourly Observations for April 9, 2018

Temp ( °F °C ) Dew Point ( °F °C ) Humidity (%) Winds ( mph kmh ) Pressure ( in mb ) Visibility ( mi km ) Precip ( " mm )
12:58 am 00:58 Cloudy 36 2.4 35 1.6 95 95 WNW 13 20 29.97 1015 10 16 N/A
1:58 am 01:58 Cloudy 37 2.7 35 1.4 91 91 WNW 12 19 29.99 1016 10 16 N/A
2:58 am 02:58 Cloudy 37 2.7 34 1.2 90 90 WNW 10 17 30.01 1016 10 16 N/A
3:58 am 03:58 Cloudy 36 2.3 33 0.8 90 90 NW 13 20 30.04 1017 10 16 N/A
4:58 am 04:58 Mostly Cloudy with Light Showers 36 2 32 -0.1 86 86 NNW 15 24 30.08 1019 10 16 N/A
5:58 am 05:58 Partly Cloudy 34 1 32 -0.2 92 92 NW 13 20 30.13 1020 10 16 N/A
6:58 am 06:58 Sunny 33 0.8 31 -0.5 91 91 NW 16 26 30.16 1021 10 16 N/A
7:58 am 07:58 Sunny 37 2.5 32 0.2 85 85 NNW 20 31 30.20 1023 10 16 N/A
8:58 am 08:58 Partly Cloudy 40 4.4 32 0.2 74 74 N 22 35 30.23 1024 10 16 N/A
9:58 am 09:58 Mostly Sunny 43 6.1 31 -0.7 62 62 NNW 22 35 30.23 1024 10 16 N/A
10:58 am 10:58 Partly Cloudy 46 7.8 29 -1.5 52 52 NW 18 30 30.24 1024 10 16 N/A
11:58 am 11:58 Mostly Cloudy 47 8.3 26 -3.2 44 44 NNW 14 22 30.24 1024 10 16 N/A
12:58 pm 12:58 Mostly Cloudy 50 9.9 23 -5 35 35 NW 21 33 30.23 1024 10 16 N/A
1:58 pm 13:58 Partly Cloudy 52 11 22 -5.3 32 32 NNW 16 26 30.20 1023 10 16 N/A
2:58 pm 14:58 Mostly Cloudy 53 11.6 24 -4.5 32 32 NW 15 24 30.19 1022 10 16 N/A
4:58 pm 16:58 Mostly Sunny 53 11.8 22 -5.3 30 30 NNW 13 20 30.18 1022 10 16 N/A
5:58 pm 17:58 Windy with Rain Showers Likely 49 9.6 25 -3.9 39 39 NNW 29 46 30.23 1024 10 16 N/A
6:58 pm 18:58 Partly Cloudy 47 8.3 28 -2.5 47 47 N 6 9 30.25 1024 10 16 N/A
7:58 pm 19:58 Mostly Clear 42 5.8 26 -3.2 53 53 NNW 3 6 30.26 1025 10 16 N/A
8:58 pm 20:58 Mostly Clear 39 4.1 26 -3.1 60 60 S 7 11 30.28 1025 10 16 N/A
9:58 pm 21:58 Cloudy 40 4.4 27 -2.8 60 60 SW 3 6 30.27 1025 10 16 N/A
10:58 pm 22:58 Mostly Cloudy 37 2.5 28 -2.1 72 72 N N/A 30.26 1025 10 16 N/A
11:58 pm 23:58 Mostly Cloudy 37 2.8 28 -2.1 70 70 S 5 7 30.24 1024 10 16 N/A

Powered by AerisWeather